Stations météo

réclame
Mon MeteoGroup
Jersey Airport, Grande-Bretagne (3895): Température de l'air & dewpoint: 22.05.2018 11:00:00 - 28.05.2018 11:00:00 (BST)Jersey Airport, Grande-Bretagne (3895): Température de l'air -20cm & Température de l'air -100cm: 22.05.2018 11:00:00 - 28.05.2018 11:00:00 (BST)Jersey Airport, Grande-Bretagne (3895): Vitesse du vent: 22.05.2018 11:00:00 - 28.05.2018 11:00:00 (BST)Jersey Airport, Grande-Bretagne (3895): Direction du vent: 22.05.2018 11:00:00 - 28.05.2018 11:00:00 (BST)Jersey Airport, Grande-Bretagne (3895): reduced air pressure: 22.05.2018 11:00:00 - 28.05.2018 11:00:00 (BST)Jersey Airport, Grande-Bretagne (3895): visibility: 22.05.2018 11:00:00 - 28.05.2018 11:00:00 (BST)Jersey Airport, Grande-Bretagne (3895): Ensoleillement: 22.05.2018 11:00:00 - 28.05.2018 11:00:00 (BST)Jersey Airport, Grande-Bretagne (3895): Quantités de précipitations: 22.05.2018 11:00:00 - 28.05.2018 11:00:00 (BST)
Date & Time tt [°C] td [°C] tt -20cm [°C] tt -100cm [°C] ff [km/h] ff [knt] dd ppp [hPa] vv [km] sd [min] rr [mm]
28.05.2018 11:00:00 - - - - - - - - - - -
28.05.2018 10:00:00 22,0 15,0 16,2 14,4 15 8 E 1017,1 10 60 0,0
28.05.2018 09:00:00 19,7 14,5 - - 13 7 NE 1017,2 10 54 0,0
28.05.2018 08:00:00 18,9 13,5 - - 15 8 ENE 1017,2 10 48 0,0
28.05.2018 07:00:00 16,8 14,0 - - 15 8 E 1016,7 10 36 0,0
28.05.2018 06:00:00 15,1 13,1 - - 15 8 E 1016,4 10 0 0,0
28.05.2018 05:00:00 14,0 12,3 - - 18 10 E 1016,1 10 0 0,0
28.05.2018 04:00:00 15,0 13,0 - - 16 9 E 1016,0 10 0 0,0
28.05.2018 03:00:00 16,0 13,3 - - 18 10 E 1016,0 10 0 0,0
28.05.2018 02:00:00 15,6 13,0 - - 15 8 E 1016,0 10 0 0,0
28.05.2018 01:00:00 16,8 13,9 - - 13 7 E 1016,4 10 - 0,0
28.05.2018 00:00:00 17,1 14,2 - - 18 10 E 1016,6 10 0 0,0
27.05.2018 23:00:00 17,0 14,2 - - 15 8 E 1016,3 10 0 0,0
27.05.2018 22:00:00 17,6 13,9 - - 11 6 ENE 1015,9 10 0 0,0
27.05.2018 21:00:00 15,9 12,4 - - 11 6 W 1015,0 10 36 0,0
27.05.2018 20:00:00 21,2 14,2 - - 5 3 SE 1014,5 45 54 0,0
27.05.2018 19:00:00 21,2 13,7 - - 11 6 ESE 1014,3 10 54 0,0
27.05.2018 18:00:00 22,2 13,6 - - 15 8 SE 1014,5 10 60 0,0
27.05.2018 17:00:00 22,6 14,4 - - 18 10 ESE 1014,5 10 60 0,0
27.05.2018 16:00:00 21,8 14,3 - - 22 12 SE 1014,7 10 60 0,0
27.05.2018 15:00:00 22,5 14,9 - - 21 11 SE 1014,8 10 54 0,0
27.05.2018 14:00:00 21,6 14,5 - - 24 13 SE 1014,9 10 54 0,0
27.05.2018 13:00:00 20,7 14,7 - - 26 14 SE 1015,0 10 48 0,0
27.05.2018 12:00:00 20,6 15,2 - - 26 14 SSE 1014,9 10 60 0,0
27.05.2018 11:00:00 19,0 15,8 - - 24 13 SSE 1014,8 10 60 0,0
27.05.2018 10:00:00 17,8 16,0 15,9 14,2 24 13 SE 1014,7 10 60 0,0
27.05.2018 09:00:00 17,0 15,9 - - 22 12 SE 1014,6 10 54 0,0
27.05.2018 08:00:00 16,6 16,2 - - 16 9 SE 1014,2 5 18 0,0
27.05.2018 07:00:00 15,9 15,5 - - 21 11 SE 1013,8 5 18 0,0
27.05.2018 06:00:00 14,8 14,6 - - 22 12 SE 1013,7 2,5 0 0,0
27.05.2018 05:00:00 14,9 14,8 - - 21 11 SE 1013,4 3,7 0 1,2
27.05.2018 04:00:00 14,8 14,6 - - 24 13 SE 1013,6 4,3 0 0,0
27.05.2018 03:00:00 15,1 14,4 - - 21 11 SSE 1013,2 10 0 0,0
27.05.2018 02:00:00 15,4 14,6 - - 28 15 SE 1013,2 10 0 0,0
27.05.2018 01:00:00 15,5 14,3 - - 24 13 ESE 1012,7 10 - 0,0
27.05.2018 00:00:00 15,3 13,8 - - 24 13 SE 1012,4 10 0 0,0
26.05.2018 23:00:00 15,1 13,8 - - 26 14 SSE 1012,6 10 0 0,0
26.05.2018 22:00:00 16,5 14,8 - - 22 12 ESE 1013,1 9 0 0,4
26.05.2018 21:00:00 21,3 16,7 - - 11 6 NE 1011,1 10 0 0,0
26.05.2018 20:00:00 22,3 16,4 - - 15 8 ESE 1011,6 10 36 0,0
26.05.2018 19:00:00 22,9 17,2 - - 18 10 E 1011,7 10 60 0,0
26.05.2018 18:00:00 23,5 17,2 - - 21 11 E 1011,1 10 60 0,0
26.05.2018 17:00:00 23,2 16,9 - - 24 13 ENE 1011,6 9 60 0,0
26.05.2018 16:00:00 22,4 16,5 - - 29 16 E 1011,9 9 60 0,0
26.05.2018 15:00:00 21,6 15,5 - - 29 16 E 1012,8 9 30 0,0
26.05.2018 14:00:00 18,7 14,3 - - 24 13 ENE 1012,8 6 54 0,0
26.05.2018 13:00:00 17,6 14,1 - - 34 18 NE 1013,0 4,0 12 0,0
26.05.2018 12:00:00 16,5 13,7 - - 31 17 NE 1013,9 3,5 12 0,0
26.05.2018 11:00:00 16,3 13,7 - - 22 12 NE 1014,7 3,5 0 0,0
26.05.2018 10:00:00 15,4 13,0 15,7 14,0 26 14 NE 1015,1 4,0 30 0,0
26.05.2018 09:00:00 16,0 13,4 - - 22 12 NE 1015,4 4,0 60 0,0
26.05.2018 08:00:00 14,1 12,5 - - 22 12 NNE 1015,6 3,0 42 0,0
26.05.2018 07:00:00 14,0 13,0 - - 16 9 NE 1016,0 2,0 12 0,0
26.05.2018 06:00:00 13,8 13,3 - - 15 8 ENE 1016,1 2,0 0 0,0
26.05.2018 05:00:00 13,2 12,9 - - 21 11 E 1016,3 0,2 0 0,0
26.05.2018 04:00:00 12,8 12,0 - - 13 7 ENE 1016,2 3,2 0 0,0
26.05.2018 03:00:00 13,5 12,5 - - 9 5 E 1016,8 4,3 0 0,0
26.05.2018 02:00:00 13,8 12,8 - - 13 7 ENE 1016,7 3,9 0 0,0
26.05.2018 01:00:00 14,0 12,4 - - 16 9 ENE 1017,0 7 - 0,0
26.05.2018 00:00:00 14,2 12,2 - - 18 10 ENE 1017,3 8 0 0,2
25.05.2018 23:00:00 14,9 11,6 - - 18 10 ENE 1017,2 9 0 0,0
25.05.2018 22:00:00 14,6 12,0 - - 24 13 E 1017,3 8 0 0,0
25.05.2018 21:00:00 15,3 12,5 - - 24 13 E 1017,2 9 0 0,0
25.05.2018 20:00:00 17,1 13,0 - - 22 12 E 1016,6 10 36 0,0
25.05.2018 19:00:00 16,8 13,5 - - 16 9 E 1016,6 10 24 0,0
25.05.2018 18:00:00 17,1 13,5 - - 18 10 NNE 1016,0 6 42 0,0
25.05.2018 17:00:00 14,4 12,4 - - 18 10 NNE 1016,7 4,0 54 0,0
25.05.2018 16:00:00 16,5 12,9 - - 22 12 NNE 1016,7 5 60 0,0
25.05.2018 15:00:00 17,5 12,6 - - 15 8 NNE 1017,3 6 60 0,0
25.05.2018 14:00:00 17,3 12,8 - - 11 6 NNE 1017,4 6 30 0,0
25.05.2018 13:00:00 16,9 12,8 - - 11 6 N 1017,7 6 0 0,0
25.05.2018 12:00:00 15,2 12,4 - - 11 6 NNE 1018,0 6 0 0,0
25.05.2018 11:00:00 15,0 12,5 - - 9 5 NNE 1018,0 5 0 0,0
25.05.2018 10:00:00 14,0 12,1 15,4 14,0 13 7 NE 1018,1 5 0 0,0
25.05.2018 09:00:00 13,8 12,7 - - 11 6 ENE 1018,2 5 0 0,0
25.05.2018 08:00:00 13,4 12,8 - - 8 4 NE 1018,1 3,5 0 0,0
25.05.2018 07:00:00 13,1 12,7 - - 5 3 NNE 1017,9 0,7 0 0,0
25.05.2018 06:00:00 13,0 12,5 - - 5 3 E 1017,8 1,5 0 0,0
25.05.2018 05:00:00 13,0 12,2 - - 5 3 E 1017,7 4,1 0 0,0
25.05.2018 04:00:00 13,0 11,9 - - 8 4 N 1017,7 5 0 0,0
25.05.2018 03:00:00 12,7 11,9 - - 4 2 - 1017,8 4,7 0 0,0
25.05.2018 02:00:00 12,8 12,2 - - 5 3 N 1018,0 3,0 0 0,0
25.05.2018 01:00:00 12,8 12,3 - - 8 4 NNE 1018,2 2,4 - 0,0
25.05.2018 00:00:00 12,7 12,2 - - 5 3 NNE 1018,4 1,4 0 0,0
24.05.2018 23:00:00 12,8 12,2 - - 11 6 NNE 1018,3 1,1 0 0,0
24.05.2018 22:00:00 13,4 12,5 - - 8 4 NNE 1018,4 3,0 0 0,0
24.05.2018 21:00:00 13,1 12,1 - - 13 7 NE 1018,1 3,0 0 0,0
24.05.2018 20:00:00 13,9 12,0 - - 16 9 NNE 1017,8 4,5 54 0,0
24.05.2018 19:00:00 15,4 12,2 - - 15 8 NNE 1017,4 7 60 0,0
24.05.2018 18:00:00 15,4 12,1 - - 18 10 NNE 1017,5 7 60 0,0
24.05.2018 17:00:00 16,2 12,1 - - 16 9 N 1017,5 8 60 0,0
24.05.2018 16:00:00 16,6 11,7 - - 16 9 N 1017,8 8 36 0,0
24.05.2018 15:00:00 15,9 11,9 - - 9 5 NE 1018,0 8 0 0,0
24.05.2018 14:00:00 16,0 12,0 - - 5 3 ENE 1018,3 7 0 0,0
24.05.2018 13:00:00 15,2 11,6 - - 9 5 NE 1018,7 9 0 0,0
24.05.2018 12:00:00 13,7 11,4 - - 9 5 ENE 1019,1 9 0 0,0
24.05.2018 11:00:00 13,0 11,1 - - 9 5 ENE 1019,4 7 0 0,0
24.05.2018 10:00:00 12,7 10,9 15,5 13,9 9 5 ENE 1019,4 5 0 0,0
24.05.2018 09:00:00 12,5 11,0 - - 11 6 NE 1019,4 6 0 0,0
24.05.2018 08:00:00 12,5 11,2 - - 8 4 ENE 1019,4 5 0 0,0
24.05.2018 07:00:00 12,4 11,1 - - 8 4 ENE 1019,1 4,0 0 0,0
24.05.2018 06:00:00 12,5 11,0 - - 11 6 NE 1018,7 6 0 0,0
24.05.2018 05:00:00 12,4 10,8 - - 8 4 NNE 1019,0 4,8 0 0,0
24.05.2018 04:00:00 12,4 11,1 - - 8 4 NNE 1019,5 5 0 0,0
24.05.2018 03:00:00 13,0 11,6 - - 8 4 NE 1019,8 7 0 0,0
24.05.2018 02:00:00 13,2 11,7 - - 9 5 NE 1020,1 8 0 0,0
24.05.2018 01:00:00 13,3 11,5 - - 15 8 ENE 1020,1 10 - 0,0
24.05.2018 00:00:00 13,3 11,5 - - 15 8 ENE 1020,3 10 0 0,0
23.05.2018 23:00:00 13,1 11,2 - - 21 11 ENE 1020,5 10 0 0,0
23.05.2018 22:00:00 13,2 10,9 - - 21 11 ENE 1020,9 10 0 0,0
23.05.2018 21:00:00 13,5 10,6 - - 21 11 E 1020,4 10 0 0,0
23.05.2018 20:00:00 14,8 10,6 - - 13 7 NE 1020,5 10 12 0,0
23.05.2018 19:00:00 15,5 10,2 - - 16 9 NE 1020,1 10 54 0,0
23.05.2018 18:00:00 16,4 10,5 - - 15 8 NNE 1020,2 10 60 0,0
23.05.2018 17:00:00 17,0 9,9 - - 18 10 NE 1020,4 10 60 0,0
23.05.2018 16:00:00 18,1 10,7 - - 16 9 NNE 1020,7 10 60 0,0
23.05.2018 15:00:00 17,5 10,4 - - 21 11 NNE 1021,0 10 60 0,0
23.05.2018 14:00:00 17,8 10,2 - - 21 11 NNE 1021,0 19 60 0,0
23.05.2018 13:00:00 17,7 10,4 - - 21 11 NE 1021,2 10 60 0,0
23.05.2018 12:00:00 17,2 10,5 - - 22 12 ENE 1021,4 10 60 0,0
23.05.2018 11:00:00 16,0 10,1 - - 18 10 NNE 1021,4 10 60 0,0
23.05.2018 10:00:00 15,7 10,0 15,0 13,7 22 12 NNE 1021,3 10 60 0,0
23.05.2018 09:00:00 14,8 9,5 - - 21 11 NE 1021,2 10 60 0,0
23.05.2018 08:00:00 14,3 10,3 - - 16 9 ENE 1020,9 10 60 0,0
23.05.2018 07:00:00 13,2 10,6 - - 21 11 ENE 1020,5 8 24 0,0
23.05.2018 06:00:00 12,2 9,8 - - 15 8 ENE 1019,8 8 0 0,0
23.05.2018 05:00:00 12,6 9,5 - - 13 7 NE 1019,3 10 0 0,0
23.05.2018 04:00:00 12,3 9,0 - - 9 5 ENE 1019,2 10 0 0,0
23.05.2018 03:00:00 13,8 9,6 - - 15 8 NE 1019,2 15 0 0,0
23.05.2018 02:00:00 14,3 10,0 - - 16 9 NE 1019,0 17 0 0,0
23.05.2018 01:00:00 13,3 10,2 - - 15 8 NNE 1019,1 10 - 0,0
23.05.2018 00:00:00 13,4 10,0 - - 15 8 NNE 1018,9 10 0 0,0
22.05.2018 23:00:00 13,5 9,8 - - 15 8 NNE 1018,8 10 0 0,0
22.05.2018 22:00:00 14,5 9,4 - - 15 8 N 1018,5 10 0 0,0
22.05.2018 21:00:00 14,8 9,7 - - 15 8 N 1017,9 10 24 0,0
22.05.2018 20:00:00 15,6 10,3 - - 15 8 N 1017,4 10 60 0,0
22.05.2018 19:00:00 17,0 10,8 - - 18 10 N 1016,9 10 60 0,0
22.05.2018 18:00:00 17,6 11,2 - - 18 10 N 1016,7 10 30 0,0
22.05.2018 17:00:00 16,5 10,7 - - 24 13 NNE 1016,7 10 6 0,0
22.05.2018 16:00:00 17,4 9,8 - - 22 12 NNE 1016,5 10 24 0,0
22.05.2018 15:00:00 17,3 10,0 - - 24 13 N 1016,6 10 60 0,0
22.05.2018 14:00:00 17,1 10,8 - - 18 10 NNE 1016,4 10 60 0,0
22.05.2018 13:00:00 17,6 11,0 - - 15 8 N 1016,2 10 60 0,0
22.05.2018 12:00:00 16,9 11,2 - - 13 7 N 1016,1 10 60 0,0
22.05.2018 11:00:00 16,6 12,0 - - 9 5 NE 1015,9 10 18 0,0

tt = Température de l'air
td = dewpoint
tt -20cm = Température de l'air -20cm
tt -100cm = Température de l'air -100cm
ff = Vitesse du vent
dd = Direction du vent
ppp = reduced air pressure
vv = visibility
sd = Ensoleillement
rr = Quantités de précipitations

stations d'obs. à proximité